User: anonymous   Login
Location: Bougoura
(13.1861°N, 5.0773°W)
Time: 08:09:41
(UTC+00:00)
Language:

Meteor 2-11 Rocket - Orbit

View from above orbital plane
View from above orbital plane
View from above satellite
View from above satellite

Ground track
Ground track

The orbit data is extracted from the following two-line orbital elements,

1 15100U 84072B   21210.00251927  .00000010  00000-0 -45736-5 0  9992
2 15100  82.5298  26.1463 0013245  88.0628 272.2049 13.84449396872848
Epoch (UTC): 29 July 2021 00:03:37
Eccentricity: 0.0013245
inclination: 82.5298°
perigee height: 938 km
apogee height: 958 km
right ascension of ascending node: 26.1463°
argument of perigee: 88.0628°
revolutions per day: 13.84449396
mean anomaly at epoch: 272.2049°
orbit number at epoch: 87284

The dashed part of the orbit path shows where the satellite is in the earth's shadow,  

DLR